Falls City, NE

12:24 AM CST on December 17, 2017 (GMT -0600)
Brenner

Weather History for KFNB - March, 2015

Change the Weather History Date:

Monday, March 2, 2015

  Actual Average Record
Temperature  
Mean Temperature 33 °F -  
Max Temperature 43 °F 52 °F 81 °F (1992)
Min Temperature 23 °F 27 °F -8 °F (1980)
Degree Days  
Heating Degree Days 32    
Moisture  
Dew Point 20 °F    
Average Humidity 63    
Maximum Humidity 88    
Minimum Humidity 38    
Precipitation  
Precipitation 0.00 in - - ()
Sea Level Pressure  
Sea Level Pressure 30.31 in    
Wind  
Wind Speed 6 mph (SE)    
Max Wind Speed 20 mph    
Max Gust Speed 24 mph    
Visibility 10 miles    
Events      
Averages and records for this station are not official NWS values.
T = Trace of Precipitation, MM = Missing Value Source: NWS Daily Summary

Daily Weather History Graph

Daily Weather History Graph

Search for Another Location

Airport or City:

Trip Planner

Search our weather history database for the weather conditions in past years. The results will help you decide how hot, cold, wet, or windy it might be!

Date:

Astronomy

Mar. 02, 2015 Rise Set
Actual Time 6:54 AM CST 6:15 PM CST
Civil Twilight 6:27 AM CST 6:42 PM CST
Nautical Twilight 5:56 AM CST 7:13 PM CST
Astronomical Twilight 5:24 AM CST 7:45 PM CST
Moon 3:45 PM CST (3/2) 4:58 AM CST (3/2)
Length of Visible Light 12h 14m
Length of Day
11h 20m
Waxing Gibbous, 92% of the Moon is Illuminated
Mar 2
Waxing Gibbous
Mar 5
Full
Mar 13
Last Quarter
Mar 20
New
Mar 27
First Quarter

Hourly Weather History & Observations

Time (CST) Temp. Windchill Dew Point Humidity Pressure Visibility Wind Dir Wind Speed Gust Speed Precip Events Conditions
12:53 AM 26.1 °F - 19.9 °F 78% 30.52 in 10.0 mi Calm Calm - N/A   Clear
1:53 AM 25.0 °F - 19.9 °F 81% 30.53 in 10.0 mi Calm Calm - N/A   Clear
2:53 AM 26.1 °F - 19.9 °F 78% 30.51 in 10.0 mi Calm Calm - N/A   Clear
3:53 AM 26.1 °F - 21.0 °F 81% 30.49 in 10.0 mi Calm Calm - N/A   Clear
4:53 AM 23.0 °F 18.4 °F 19.9 °F 88% 30.49 in 8.0 mi ESE 3.5 mph - N/A   Scattered Clouds
5:53 AM 23.0 °F 18.4 °F 19.4 °F 86% 30.47 in 8.0 mi ENE 3.5 mph - N/A   Overcast
6:53 AM 24.1 °F - 21.0 °F 88% 30.50 in 9.0 mi Calm Calm - N/A   Partly Cloudy
7:53 AM 26.1 °F 20.5 °F 21.9 °F 84% 30.50 in 7.0 mi ESE 4.6 mph - N/A   Overcast
8:53 AM 28.4 °F 21.2 °F 24.8 °F 86% 30.46 in 8.0 mi ESE 6.9 mph - N/A   Overcast
9:53 AM 33.1 °F 24.9 °F 24.1 °F 70% 30.49 in 10.0 mi SSE 10.4 mph - N/A   Overcast
10:53 AM 39.0 °F 31.4 °F 23.0 °F 53% 30.47 in 10.0 mi SSE 12.7 mph 20.7 mph N/A   Scattered Clouds
11:53 AM 39.0 °F 31.0 °F 21.0 °F 49% 30.43 in 10.0 mi SSE 13.8 mph - N/A   Clear
12:53 PM 39.0 °F 31.8 °F 21.0 °F 49% 30.38 in 10.0 mi SE 11.5 mph - N/A   Scattered Clouds
1:53 PM 42.1 °F 34.5 °F 19.9 °F 41% 30.33 in 10.0 mi SSE 15.0 mph 21.9 mph N/A   Scattered Clouds
2:53 PM 43.0 °F 35.7 °F 19.0 °F 38% 30.27 in 10.0 mi SE 15.0 mph - N/A   Clear
3:53 PM 41.0 °F 33.5 °F 17.6 °F 39% 30.21 in 10.0 mi SE 13.8 mph - N/A   Clear
4:53 PM 39.0 °F 29.3 °F 18.0 °F 43% 30.19 in 10.0 mi SE 19.6 mph 24.2 mph N/A   Clear
5:53 PM 36.0 °F 27.1 °F 18.0 °F 48% 30.17 in 10.0 mi SE 13.8 mph 20.7 mph N/A   Clear
6:53 PM 34.0 °F 26.0 °F 17.1 °F 50% 30.16 in 10.0 mi SE 10.4 mph - N/A   Mostly Cloudy
7:53 PM 34.0 °F 24.6 °F 19.0 °F 54% 30.14 in 10.0 mi SE 13.8 mph - N/A   Overcast
8:53 PM 34.0 °F 24.2 °F 19.0 °F 54% 30.08 in 10.0 mi SSE 15.0 mph - N/A   Overcast
9:07 PM 34.0 °F 24.6 °F 19.0 °F 54% 30.04 in 10.0 mi SSE 13.8 mph - N/A   Overcast
9:53 PM 34.0 °F 24.6 °F 19.0 °F 54% 30.03 in 10.0 mi SSE 13.8 mph - N/A   Overcast
10:53 PM 34.0 °F 23.8 °F 21.0 °F 59% 30.00 in 10.0 mi SSE 16.1 mph 21.9 mph N/A   Overcast
11:53 PM 34.0 °F 23.8 °F 23.0 °F 64% 29.95 in 10.0 mi SSE 16.1 mph - N/A   Overcast